Location: North Evanston
(42.0634°N, 87.6976°W)
Time: 14:22:21
(UTC+00:00)

Vanguard 2 Rocket - Pass Details

Date: 13 May 2026
Orbit: 553 x 3286 km, 32.9° (Epoch: 6 June)

Event Time Altitude Azimuth Distance (km) Brightness Sun altitude
Rises 19:41:35 0° 262° (W) 6,243 11.6 56.2°
Reaches altitude 10° 19:45:18 10° 260° (W) 5,504 11.6 55.6°
Maximum altitude 20:03:02 64° 185° (S) 3,510 11.1 52.8°
Drops below altitude 10° 20:21:58 10° 110° (ESE) 5,826 10.8 49.7°
Sets 20:26:03 0° 107° (ESE) 6,610 11.0 49.0°
